[Iaude] MPEC E130: 2024 ES2 [a=0.76,e=0.43,i=11.2,H=26.4]

mpec at cfa.harvard.edu mpec at cfa.harvard.edu
Fri Mar 8 18:22:13 EST 2024


M.P.E.C. 2024-E130                                Issued 2024 March 8, 23:20 UT

     The Minor Planet Electronic Circulars contain information on unusual
         minor planets, routine data on comets and natural satellites,
         and occasional editorial announcements.  They are published
    on behalf of Division F of the International Astronomical Union by the
          Minor Planet Center, Smithsonian Astrophysical Observatory,
                          Cambridge, MA 02138, U.S.A.
			  
             Prepared using the Tamkin Foundation Computer Network

                              MPC at CFA.HARVARD.EDU
            URL https://www.minorplanetcenter.net/    ISSN 1523-6714

                                    2024 ES2                                    


Observations:
     K24E02S*1C2024 03 07.28917911 00 23.450+14 45 16.70         19.42GVEE130G96
     K24E02S 1C2024 03 07.29487311 00 15.530+14 47 23.70               VEE130G96
     K24E02S 1C2024 03 07.30055511 00 07.560+14 49 30.70               VEE130G96
     K24E02S mC2024 03 07.33433710 59 20.465+15 01 57.07         19.59GVEE130I52
     K24E02S mC2024 03 07.33450710 59 20.195+15 02 00.71         19.78GVEE130I52
     K24E02S mC2024 03 07.33467710 59 19.968+15 02 04.67         19.59GVEE130I52
     K24E02S mC2024 03 07.33484710 59 19.752+15 02 08.27         18.88GVEE130I52
     K24E02S mC2024 03 07.40693010 57 40.964+15 28 08.26         19.51GVEE130I52
     K24E02S mC2024 03 07.40710010 57 40.712+15 28 12.36         19.32GVEE130I52
     K24E02S mC2024 03 07.40727010 57 40.536+15 28 15.49         20.00GVEE130I52
     K24E02S mC2024 03 07.40744010 57 40.291+15 28 20.53         19.67GVEE130I52
     K24E02S KC2024 03 07.82122410 49 36.679+17 47 04.63         19.8 GVEE130J95
     K24E02S KC2024 03 07.82794410 49 28.658+17 49 14.56         19.6 GVEE130J95
     K24E02S KC2024 03 07.83862810 49 15.768+17 52 41.05         19.7 GVEE130J95
     K24E02S KC2024 03 07.87275710 48 33.754+18 04 07.68         19.8 GVEE130598
     K24E02S 1C2024 03 07.87336 10 48 32.00 +18 03 56.9          20.5 VXEE130033
     K24E02S 1C2024 03 07.87372 10 48 31.55 +18 04 03.7          20.1 VXEE130033
     K24E02S 1C2024 03 07.87406 10 48 31.15 +18 04 10.3          20.1 VXEE130033
     K24E02S KC2024 03 07.87426910 48 31.894+18 04 36.41         19.8 GVEE130598
     K24E02S KC2024 03 07.87558310 48 30.290+18 05 01.43         19.6 GVEE130598
     K24E02S 1C2024 03 08.05741 10 44 51.37 +19 00 16.5          19.3 VXEE130033
     K24E02S 1C2024 03 08.05787 10 44 50.82 +19 00 24.6          19.1 VXEE130033
     K24E02S 1C2024 03 08.05833 10 44 50.30 +19 00 33.0          19.2 VXEE130033
     K24E02S 1C2024 03 08.80813 10 32 12.74 +22 21 37.2          21.4 VXEE130033
     K24E02S 1C2024 03 08.80870 10 32 12.14 +22 21 45.9          21.2 VXEE130033
     K24E02S 1C2024 03 08.80927 10 32 11.57 +22 21 54.3          21.3 VXEE130033
     K24E02S 1C2024 03 08.81092 10 32 09.91 +22 22 18.6          21.4 VXEE130033
     K24E02S KB2024 03 08.82535 10 31 55.894+22 25 51.74         20.2 GXEE130K74
     K24E02S KB2024 03 08.83526210 31 48.44 +22 28 30.1          19.2 GXEE130958
     K24E02S KB2024 03 08.83983310 31 43.76 +22 29 39.2          19.4 GXEE130958
     K24E02S KB2024 03 08.84411 10 31 37.121+22 30 25.20         20.2 GXEE130K74
     K24E02S KB2024 03 08.84434710 31 39.40 +22 30 41.7          19.8 GXEE130958
     K24E02S KB2024 03 08.86295 10 31 18.209+22 34 57.61         20.1 GXEE130K74

Observer details:
033 Karl Schwarzschild Observatory, Tautenburg.  Observers S. Melnikov, C.
    Hogner, F. Ludwig, M. Hartmann, B. Stecklum.  Measurer B. Stecklum.
    1.34-m f/3 Schmidt + CCD.
598 Loiano.  Observer A. Carbognani.  1.52-m f/4.75 Reflector + CCD.
958 Observatoire de Dax.  Observer P. Dupouy.  0.50-m f/4.5 Reflector + CMO.
G96 Mt. Lemmon Survey.  Observer J. B. Fazekas.  Measurers T. Beuden, V. F.
    Carvajal, D. Fay, J. B. Fazekas, D. C. Fuls, A. R. Gibbs, A. D. Grauer, H.
    Groeller, J. K. Hogan, R. A. Kowalski, S. M. Larson, G. J. Leonard, D.
    Rankin, R. L. Seaman, F. C. Shelly, K. W. Wierzchos.  1.5-m reflector +
    10K CCD.
I52 Steward Observatory, Mt. Lemmon Station.  Observers V. F. Carvajal, G. J.
    Leonard.  Measurers T. Beuden, V. F. Carvajal, D. Fay, J. B. Fazekas, D.
    C. Fuls, A. R. Gibbs, A. D. Grauer, H. Groeller, J. K. Hogan, R. A.
    Kowalski, S. M. Larson, G. J. Leonard, D. Rankin, R. L. Seaman, F. C.
    Shelly, K. W. Wierzchos.  1.0-m prime focus + CCD.
J95 Great Shefford.  Observer P. Birtwhistle.  0.41-m f/6.3 Schmidt-Cassegrain
    + CCD.
K74 Muensterschwarzach Observatory, Schwarzach.  Observer C. Gerhard.  0.30-m
    f/3.75 reflector + CMO.

Orbital elements:
2024 ES2                                                 Earth MOID = 0.0142 AU
Epoch 2024 Mar. 31.0 TT = JDT 2460400.5                 Veres                   
M 166.04104              (2000.0)            P               Q                  
n   1.49653464     Peri.  203.84413     +0.98490474     -0.16602407             
a   0.7569692      Node   165.45643     +0.17274486     +0.96078072             
e   0.4314108      Incl.   11.24669     -0.01103933     +0.22211803             
P   0.66           H   26.47          G   0.15           U   8                  
Residuals in seconds of arc
240307 G96  0.4-  0.1+    240307 J95  0.1-  0.4+    240308 033  0.3-  0.4+
240307 G96  0.5+  0.1-    240307 J95  0.5+  0.1-    240308 033  0.2+  0.2-
240307 G96  0.3+  0.3+    240307 J95  0.3-  0.4-    240308 033  0.2-  0.1+
240307 I52  0.3+  0.1-    240307 598 (2.4+  2.7-)   240308 033  0.2-  0.1+
240307 I52  0.2-  0.2-    240307 033  0.1+  0.0     240308 033  0.4-  0.2+
240307 I52  0.0   0.0     240307 033  0.0   0.1-    240308 K74  0.0   0.7-
240307 I52  0.3+  0.1-    240307 033  0.2+  0.0     240308 958  0.5+  1.5+
240307 I52  0.0   0.4-    240307 598 (2.3+  2.8-)   240308 958 (1.2-  3.7+)
240307 I52  0.3-  0.1+    240307 598 (2.4+  2.8-)   240308 K74  0.1+  0.5-
240307 I52  0.4+  0.4-    240308 033  0.4-  0.2+    240308 958  0.8+  0.3+
240307 I52  0.2+  1.0+    240308 033  0.6-  0.1+    240308 K74  0.4-  0.4-

Ephemeris:
2024 ES2                 a,e,i = 0.76, 0.43, 11                  q = 0.4304
Date    TT    R. A. (2000) Decl.     Delta      r    Elong.  Phase     V
2024 02 07    19 35 30.2 -47 37 58   0.1579  0.8682    38.5   135.0    28.4
...
2024 02 22    18 15 25.7 -51 16 49   0.06927 0.9602    63.6   112.7    24.9
...
2024 03 01    14 55 06.7 -42 19 12   0.02888 0.9987   105.0    73.4    21.3
...
2024 03 07    11 06 50.0 +12 54 29   0.03066 1.0228   172.3     7.4    19.5
2024 03 08    10 46 03.1 +18 45 10   0.03497 1.0264   164.5    14.9    20.1
2024 03 09    10 29 06.1 +23 08 25   0.03978 1.0299   158.0    21.2    20.6
...
2024 03 15    09 33 29.3 +34 50 11   0.07336 1.0485   136.0    41.2    22.5
...
2024 03 23    09 08 34.5 +38 48 45   0.1218  1.0672   122.6    51.9    24.0
...
2024 04 07    09 01 20.1 +40 05 02   0.2128  1.0832   107.2    62.0    25.5

M. P. C. Staff               (C) Copyright 2024 MPC           M.P.E.C. 2024-E130





More information about the Iaude mailing list